User: anonymous   Login
Location: Melbourne
(37.8170°S, 144.9670°E)
Time: 02:59:12
(UTC+11:00)
Language:

Aureole 2 Rocket - Orbit

View from above orbital plane
View from above orbital plane
View from above satellite
View from above satellite

Ground track
Ground track

The orbit data is extracted from the following two-line orbital elements,

1 07004U 73107B   15087.19708800  .00032898  00000-0  74768-3 0  9998
2 07004 073.9458 358.4984 0257631 073.5888 081.2160 15.14901951113170
Epoch (UTC): 28 March 2015 04:43:48
Eccentricity: 0.0257631
inclination: 73.9458°
perigee height: 343 km
apogee height: 699 km
right ascension of ascending node: 358.4984°
argument of perigee: 73.5888°
revolutions per day: 15.14901951
mean anomaly at epoch: 81.2160°
orbit number at epoch: 11317

The dashed part of the orbit path shows where the satellite is in the earth's shadow,  

DLR